Year,Month,Day,Hour,Minute,Value (Times are PST for temperature in C)
2010,07,16,00,00,12.90
2010,07,16,00,01,12.90
2010,07,16,00,02,12.90
2010,07,16,00,03,12.90
2010,07,16,00,04,12.90
2010,07,16,00,05,12.90
2010,07,16,00,06,12.90
2010,07,16,00,07,12.90
2010,07,16,00,08,12.90
2010,07,16,00,09,12.80
2010,07,16,00,10,12.80
2010,07,16,00,11,12.80
2010,07,16,00,12,12.80
2010,07,16,00,13,12.80
2010,07,16,00,14,12.80
2010,07,16,00,15,12.80
2010,07,16,00,16,12.80
2010,07,16,00,17,12.80
2010,07,16,00,18,12.80
2010,07,16,00,19,12.80
2010,07,16,00,20,12.80
2010,07,16,00,21,12.80
2010,07,16,00,22,12.80
2010,07,16,00,23,12.80
2010,07,16,00,24,12.70
2010,07,16,00,25,12.70
2010,07,16,00,26,12.70
2010,07,16,00,27,12.70
2010,07,16,00,28,12.70
2010,07,16,00,29,12.60
2010,07,16,00,30,12.60
2010,07,16,00,31,12.60
2010,07,16,00,32,12.60
2010,07,16,00,33,12.60
2010,07,16,00,34,12.50
2010,07,16,00,35,12.50
2010,07,16,00,36,12.50
2010,07,16,00,37,12.50
2010,07,16,00,38,12.50
2010,07,16,00,39,12.50
2010,07,16,00,40,12.50
2010,07,16,00,41,12.50
2010,07,16,00,42,12.50
2010,07,16,00,43,12.50
2010,07,16,00,44,12.50
2010,07,16,00,45,12.50
2010,07,16,00,46,12.50
2010,07,16,00,47,12.50
2010,07,16,00,48,12.50
2010,07,16,00,49,12.50
2010,07,16,00,50,12.60
2010,07,16,00,51,12.60
2010,07,16,00,52,12.60
2010,07,16,00,53,12.60
2010,07,16,00,54,12.60
2010,07,16,00,55,12.50
2010,07,16,00,56,12.50
2010,07,16,00,57,12.50
2010,07,16,00,58,12.50
2010,07,16,00,59,12.50
2010,07,16,01,00,12.50
2010,07,16,01,01,12.50
2010,07,16,01,02,12.50
2010,07,16,01,03,12.40
2010,07,16,01,04,12.40
2010,07,16,01,05,12.40
2010,07,16,01,06,12.40
2010,07,16,01,07,12.40
2010,07,16,01,08,12.40
2010,07,16,01,09,12.40
2010,07,16,01,10,12.40
2010,07,16,01,11,12.30
2010,07,16,01,12,12.30
2010,07,16,01,13,12.30
2010,07,16,01,14,12.30
2010,07,16,01,15,12.30
2010,07,16,01,16,12.30
2010,07,16,01,17,12.30
2010,07,16,01,18,12.30
2010,07,16,01,19,12.30
2010,07,16,01,20,12.30
2010,07,16,01,21,12.30
2010,07,16,01,22,12.30
2010,07,16,01,23,12.30
2010,07,16,01,24,12.30
2010,07,16,01,25,12.30
2010,07,16,01,26,12.30
2010,07,16,01,27,12.30
2010,07,16,01,28,12.30
2010,07,16,01,29,12.30
2010,07,16,01,30,12.30
2010,07,16,01,31,12.30
2010,07,16,01,32,12.30
2010,07,16,01,33,12.30
2010,07,16,01,34,12.30
2010,07,16,01,35,12.30
2010,07,16,01,36,12.30
2010,07,16,01,37,12.30
2010,07,16,01,38,12.30
2010,07,16,01,39,12.30
2010,07,16,01,40,12.30
2010,07,16,01,41,12.30
2010,07,16,01,42,12.30
2010,07,16,01,43,12.30
2010,07,16,01,44,12.30
2010,07,16,01,45,12.30
2010,07,16,01,46,12.30
2010,07,16,01,47,12.20
2010,07,16,01,48,12.20
2010,07,16,01,49,12.20
2010,07,16,01,50,12.20
2010,07,16,01,51,12.20
2010,07,16,01,52,12.20
2010,07,16,01,53,12.20
2010,07,16,01,54,12.20
2010,07,16,01,55,12.20
2010,07,16,01,56,12.20
2010,07,16,01,57,12.20
2010,07,16,01,58,12.20
2010,07,16,01,59,12.20
2010,07,16,02,00,12.10
2010,07,16,02,01,12.10
2010,07,16,02,02,12.10
2010,07,16,02,03,12.10
2010,07,16,02,04,12.00
2010,07,16,02,05,12.00
2010,07,16,02,06,12.00
2010,07,16,02,07,12.00
2010,07,16,02,08,12.00
2010,07,16,02,09,12.00
2010,07,16,02,10,11.90
2010,07,16,02,11,11.90
2010,07,16,02,12,11.90
2010,07,16,02,13,11.90
2010,07,16,02,14,11.90
2010,07,16,02,15,11.80
2010,07,16,02,16,11.80
2010,07,16,02,17,11.80
2010,07,16,02,18,11.80
2010,07,16,02,19,11.80
2010,07,16,02,20,11.80
2010,07,16,02,21,11.80
2010,07,16,02,22,11.80
2010,07,16,02,23,11.80
2010,07,16,02,24,11.70
2010,07,16,02,25,11.70
2010,07,16,02,26,11.70
2010,07,16,02,27,11.70
2010,07,16,02,28,11.70
2010,07,16,02,29,11.70
2010,07,16,02,30,11.70
2010,07,16,02,31,11.70
2010,07,16,02,32,11.60
2010,07,16,02,33,11.60
2010,07,16,02,34,11.60
2010,07,16,02,35,11.60
2010,07,16,02,36,11.60
2010,07,16,02,37,11.60
2010,07,16,02,38,11.60
2010,07,16,02,39,11.60
2010,07,16,02,40,11.60
2010,07,16,02,41,11.60
2010,07,16,02,42,11.70
2010,07,16,02,43,11.70
2010,07,16,02,44,11.60
2010,07,16,02,45,11.60
2010,07,16,02,46,11.60
2010,07,16,02,47,11.60
2010,07,16,02,48,11.60
2010,07,16,02,49,11.60
2010,07,16,02,50,11.60
2010,07,16,02,51,11.60
2010,07,16,02,52,11.60
2010,07,16,02,53,11.60
2010,07,16,02,54,11.60
2010,07,16,02,55,11.60
2010,07,16,02,56,11.60
2010,07,16,02,57,11.60
2010,07,16,02,58,11.60
2010,07,16,02,59,11.60
2010,07,16,03,00,11.60
2010,07,16,03,01,11.60
2010,07,16,03,02,11.60
2010,07,16,03,03,11.60
2010,07,16,03,04,11.60
2010,07,16,03,05,11.60
2010,07,16,03,06,11.50
2010,07,16,03,07,11.40
2010,07,16,03,08,11.40
2010,07,16,03,09,11.40
2010,07,16,03,10,11.40
2010,07,16,03,11,11.40
2010,07,16,03,12,11.40
2010,07,16,03,13,11.40
2010,07,16,03,14,11.40
2010,07,16,03,15,11.40
2010,07,16,03,16,11.40
2010,07,16,03,17,11.40
2010,07,16,03,18,11.40
2010,07,16,03,19,11.30
2010,07,16,03,20,11.30
2010,07,16,03,21,11.30
2010,07,16,03,22,11.30
2010,07,16,03,23,11.30
2010,07,16,03,24,11.20
2010,07,16,03,25,11.20
2010,07,16,03,26,11.20
2010,07,16,03,27,11.10
2010,07,16,03,28,11.10
2010,07,16,03,29,11.10
2010,07,16,03,30,11.10
2010,07,16,03,31,11.10
2010,07,16,03,32,11.10
2010,07,16,03,33,11.10
2010,07,16,03,34,11.10
2010,07,16,03,35,11.10
2010,07,16,03,36,11.10
2010,07,16,03,37,11.10
2010,07,16,03,38,11.00
2010,07,16,03,39,10.90
2010,07,16,03,40,10.90
2010,07,16,03,41,10.90
2010,07,16,03,42,10.90
2010,07,16,03,43,10.90
2010,07,16,03,44,10.90
2010,07,16,03,45,10.90
2010,07,16,03,46,10.90
2010,07,16,03,47,10.90
2010,07,16,03,48,10.90
2010,07,16,03,49,10.90
2010,07,16,03,50,10.90
2010,07,16,03,51,10.90
2010,07,16,03,52,10.90
2010,07,16,03,53,10.90
2010,07,16,03,54,10.90
2010,07,16,03,55,10.90
2010,07,16,03,56,10.90
2010,07,16,03,57,10.90
2010,07,16,03,58,10.90
2010,07,16,03,59,10.90
2010,07,16,04,00,10.90
2010,07,16,04,01,10.90
2010,07,16,04,02,10.90
2010,07,16,04,03,10.90
2010,07,16,04,04,10.90
2010,07,16,04,05,10.90
2010,07,16,04,06,10.90
2010,07,16,04,07,10.90
2010,07,16,04,08,10.90
2010,07,16,04,09,10.90
2010,07,16,04,10,10.80
2010,07,16,04,11,10.80
2010,07,16,04,12,10.80
2010,07,16,04,13,10.80
2010,07,16,04,14,10.80
2010,07,16,04,15,10.80
2010,07,16,04,16,10.80
2010,07,16,04,17,10.80
2010,07,16,04,18,10.70
2010,07,16,04,19,10.70
2010,07,16,04,20,10.70
2010,07,16,04,21,10.60
2010,07,16,04,22,10.60
2010,07,16,04,23,10.60
2010,07,16,04,24,10.60
2010,07,16,04,25,10.60
2010,07,16,04,26,10.60
2010,07,16,04,27,10.60
2010,07,16,04,28,10.60
2010,07,16,04,29,10.70
2010,07,16,04,30,10.70
2010,07,16,04,31,10.70
2010,07,16,04,32,10.70
2010,07,16,04,33,10.70
2010,07,16,04,34,10.70
2010,07,16,04,35,10.70
2010,07,16,04,36,10.70
2010,07,16,04,37,10.70
2010,07,16,04,38,10.70
2010,07,16,04,39,10.70
2010,07,16,04,40,10.70
2010,07,16,04,41,10.70
2010,07,16,04,42,10.70
2010,07,16,04,43,10.70
2010,07,16,04,44,10.60
2010,07,16,04,45,10.60
2010,07,16,04,46,10.60
2010,07,16,04,47,10.60
2010,07,16,04,48,10.60
2010,07,16,04,49,10.60
2010,07,16,04,50,10.60
2010,07,16,04,51,10.60
2010,07,16,04,52,10.60
2010,07,16,04,53,10.60
2010,07,16,04,54,10.60
2010,07,16,04,55,10.60
2010,07,16,04,56,10.60
2010,07,16,04,57,10.50
2010,07,16,04,58,10.40
2010,07,16,04,59,10.40
2010,07,16,05,00,10.40
2010,07,16,05,01,10.40
2010,07,16,05,02,10.40
2010,07,16,05,03,10.40
2010,07,16,05,04,10.40
2010,07,16,05,05,10.40
2010,07,16,05,06,10.40
2010,07,16,05,07,10.40
2010,07,16,05,08,10.40
2010,07,16,05,09,10.40
2010,07,16,05,10,10.40
2010,07,16,05,11,10.40
2010,07,16,05,12,10.40
2010,07,16,05,13,10.40
2010,07,16,05,14,10.30
2010,07,16,05,15,10.30
2010,07,16,05,16,10.30
2010,07,16,05,17,10.30
2010,07,16,05,18,10.40
2010,07,16,05,19,10.40
2010,07,16,05,20,10.40
2010,07,16,05,21,10.40
2010,07,16,05,22,10.40
2010,07,16,05,23,10.40
2010,07,16,05,24,10.40
2010,07,16,05,25,10.40
2010,07,16,05,26,10.40
2010,07,16,05,27,10.40
2010,07,16,05,28,10.40
2010,07,16,05,29,10.30
2010,07,16,05,30,10.30
2010,07,16,05,31,10.30
2010,07,16,05,32,10.30
2010,07,16,05,33,10.30
2010,07,16,05,34,10.30
2010,07,16,05,35,10.30
2010,07,16,05,36,10.30
2010,07,16,05,37,10.30
2010,07,16,05,38,10.30
2010,07,16,05,39,10.30
2010,07,16,05,40,10.30
2010,07,16,05,41,10.30
2010,07,16,05,42,10.30
2010,07,16,05,43,10.20
2010,07,16,05,44,10.20
2010,07,16,05,45,10.20
2010,07,16,05,46,10.20
2010,07,16,05,47,10.20
2010,07,16,05,48,10.20
2010,07,16,05,49,10.20
2010,07,16,05,50,10.20
2010,07,16,05,51,10.30
2010,07,16,05,52,10.30
2010,07,16,05,53,10.30
2010,07,16,05,54,10.30
2010,07,16,05,55,10.40
2010,07,16,05,56,10.40
2010,07,16,05,57,10.40
2010,07,16,05,58,10.40
2010,07,16,05,59,10.40
2010,07,16,06,00,10.40
2010,07,16,06,01,10.40
2010,07,16,06,02,10.40
2010,07,16,06,03,10.40
2010,07,16,06,04,10.30
2010,07,16,06,05,10.30
2010,07,16,06,06,10.30
2010,07,16,06,07,10.30
2010,07,16,06,08,10.30
2010,07,16,06,09,10.30
2010,07,16,06,10,10.30
2010,07,16,06,11,10.30
2010,07,16,06,12,10.30
2010,07,16,06,13,10.30
2010,07,16,06,14,10.40
2010,07,16,06,15,10.40
2010,07,16,06,16,10.40
2010,07,16,06,17,10.40
2010,07,16,06,18,10.50
2010,07,16,06,19,10.60
2010,07,16,06,20,10.60
2010,07,16,06,21,10.70
2010,07,16,06,22,10.70
2010,07,16,06,23,10.80
2010,07,16,06,24,10.80
2010,07,16,06,25,10.90
2010,07,16,06,26,10.90
2010,07,16,06,27,10.90
2010,07,16,06,28,11.00
2010,07,16,06,29,11.10
2010,07,16,06,30,11.10
2010,07,16,06,31,11.10
2010,07,16,06,32,11.10
2010,07,16,06,33,11.10
2010,07,16,06,34,11.20
2010,07,16,06,35,11.20
2010,07,16,06,36,11.20
2010,07,16,06,37,11.20
2010,07,16,06,38,11.20
2010,07,16,06,39,11.30
2010,07,16,06,40,11.30
2010,07,16,06,41,11.30
2010,07,16,06,42,11.40
2010,07,16,06,43,11.40
2010,07,16,06,44,11.50
2010,07,16,06,45,11.60
2010,07,16,06,46,11.70
2010,07,16,06,47,11.80
2010,07,16,06,48,12.00
2010,07,16,06,49,12.10
2010,07,16,06,50,12.10
2010,07,16,06,51,12.20
2010,07,16,06,52,12.30
2010,07,16,06,53,12.30
2010,07,16,06,54,12.30
2010,07,16,06,55,12.40
2010,07,16,06,56,12.50
2010,07,16,06,57,12.60
2010,07,16,06,58,12.70
2010,07,16,06,59,12.80
2010,07,16,07,00,12.80
2010,07,16,07,01,12.80
2010,07,16,07,02,12.90
2010,07,16,07,03,13.00
2010,07,16,07,04,13.00
2010,07,16,07,05,13.10
2010,07,16,07,06,13.20
2010,07,16,07,07,13.20
2010,07,16,07,08,13.30
2010,07,16,07,09,13.30
2010,07,16,07,10,13.30
2010,07,16,07,11,13.30
2010,07,16,07,12,13.30
2010,07,16,07,13,13.40
2010,07,16,07,14,13.40
2010,07,16,07,15,13.40
2010,07,16,07,16,13.40
2010,07,16,07,17,13.40
2010,07,16,07,18,13.50
2010,07,16,07,19,13.60
2010,07,16,07,20,13.60
2010,07,16,07,21,13.70
2010,07,16,07,22,13.70
2010,07,16,07,23,13.70
2010,07,16,07,24,13.70
2010,07,16,07,25,13.80
2010,07,16,07,26,13.80
2010,07,16,07,27,13.90
2010,07,16,07,28,13.90
2010,07,16,07,29,13.90
2010,07,16,07,30,14.00
2010,07,16,07,31,14.00
2010,07,16,07,32,14.00
2010,07,16,07,33,14.00
2010,07,16,07,34,14.00
2010,07,16,07,35,14.00
2010,07,16,07,36,14.00
2010,07,16,07,37,13.90
2010,07,16,07,38,13.90
2010,07,16,07,39,13.80
2010,07,16,07,40,13.80
2010,07,16,07,41,13.80
2010,07,16,07,42,13.80
2010,07,16,07,43,13.80
2010,07,16,07,44,13.70
2010,07,16,07,45,13.70
2010,07,16,07,46,13.70
2010,07,16,07,47,13.70
2010,07,16,07,48,13.70
2010,07,16,07,49,13.70
2010,07,16,07,50,13.70
2010,07,16,07,51,13.70
2010,07,16,07,52,13.70
2010,07,16,07,53,13.70
2010,07,16,07,54,13.70
2010,07,16,07,55,13.70
2010,07,16,07,56,13.70
2010,07,16,07,57,13.70
2010,07,16,07,58,13.70
2010,07,16,07,59,13.70
2010,07,16,08,00,13.70
2010,07,16,08,01,13.80
2010,07,16,08,02,13.80
2010,07,16,08,03,13.90
2010,07,16,08,04,13.90
2010,07,16,08,05,13.90
2010,07,16,08,06,13.90
2010,07,16,08,07,14.00
2010,07,16,08,08,14.00
2010,07,16,08,09,14.00
2010,07,16,08,10,14.00
2010,07,16,08,11,14.00
2010,07,16,08,12,14.00
2010,07,16,08,13,13.90
2010,07,16,08,14,13.80
2010,07,16,08,15,13.70
2010,07,16,08,16,13.80
2010,07,16,08,17,13.80
2010,07,16,08,18,13.80
2010,07,16,08,19,13.90
2010,07,16,08,20,13.90
2010,07,16,08,21,13.90
2010,07,16,08,22,14.00
2010,07,16,08,23,14.00
2010,07,16,08,24,14.10
2010,07,16,08,25,14.00
2010,07,16,08,26,13.90
2010,07,16,08,27,13.90
2010,07,16,08,28,13.90
2010,07,16,08,29,13.80
2010,07,16,08,30,13.80
2010,07,16,08,31,13.70
2010,07,16,08,32,13.70
2010,07,16,08,33,13.70
2010,07,16,08,34,13.70
2010,07,16,08,35,13.80
2010,07,16,08,36,13.90
2010,07,16,08,37,14.00
2010,07,16,08,38,14.00
2010,07,16,08,39,14.10
2010,07,16,08,40,14.20
2010,07,16,08,41,14.20
2010,07,16,08,42,14.30
2010,07,16,08,43,14.30
2010,07,16,08,44,14.40
2010,07,16,08,45,14.50
2010,07,16,08,46,14.60
2010,07,16,08,47,14.50
2010,07,16,08,48,14.50
2010,07,16,08,49,14.60
2010,07,16,08,50,14.60
2010,07,16,08,51,14.60
2010,07,16,08,52,14.60
2010,07,16,08,53,14.50
2010,07,16,08,54,14.30
2010,07,16,08,55,14.20
2010,07,16,08,56,14.20
2010,07,16,08,57,14.20
2010,07,16,08,58,14.20
2010,07,16,08,59,14.20
2010,07,16,09,00,14.20
2010,07,16,09,01,14.20
2010,07,16,09,02,14.30
2010,07,16,09,03,14.30
2010,07,16,09,04,14.30
2010,07,16,09,05,14.30
2010,07,16,09,06,14.20
2010,07,16,09,07,14.20
2010,07,16,09,08,14.20
2010,07,16,09,09,14.20
2010,07,16,09,10,14.20
2010,07,16,09,11,14.20
2010,07,16,09,12,14.20
2010,07,16,09,13,14.20
2010,07,16,09,14,14.20
2010,07,16,09,15,14.20
2010,07,16,09,16,14.30
2010,07,16,09,17,14.30
2010,07,16,09,18,14.30
2010,07,16,09,19,14.30
2010,07,16,09,20,14.30
2010,07,16,09,21,14.30
2010,07,16,09,22,14.40
2010,07,16,09,23,14.40
2010,07,16,09,24,14.50
2010,07,16,09,25,14.50
2010,07,16,09,26,14.50
2010,07,16,09,27,14.50
2010,07,16,09,28,14.60
2010,07,16,09,29,14.70
2010,07,16,09,30,14.80
2010,07,16,09,31,14.90
2010,07,16,09,32,15.00
2010,07,16,09,33,15.00
2010,07,16,09,34,15.10
2010,07,16,09,35,15.10
2010,07,16,09,36,15.10
2010,07,16,09,37,14.90
2010,07,16,09,38,14.80
2010,07,16,09,39,14.70
2010,07,16,09,40,14.70
2010,07,16,09,41,14.60
2010,07,16,09,42,14.70
2010,07,16,09,43,14.70
2010,07,16,09,44,14.70
2010,07,16,09,45,14.70
2010,07,16,09,46,14.70
2010,07,16,09,47,14.80
2010,07,16,09,48,14.80
2010,07,16,09,49,14.90
2010,07,16,09,50,15.10
2010,07,16,09,51,15.10
2010,07,16,09,52,15.20
2010,07,16,09,53,15.10
2010,07,16,09,54,14.90
2010,07,16,09,55,14.70
2010,07,16,09,56,14.60
2010,07,16,09,57,14.50
2010,07,16,09,58,14.40
2010,07,16,09,59,14.40
2010,07,16,10,00,14.40
2010,07,16,10,01,14.50
2010,07,16,10,02,14.50
2010,07,16,10,03,14.60
2010,07,16,10,04,14.70
2010,07,16,10,05,14.80
2010,07,16,10,06,14.90
2010,07,16,10,07,14.90
2010,07,16,10,08,15.00
2010,07,16,10,09,15.10
2010,07,16,10,10,15.20
2010,07,16,10,11,15.30
2010,07,16,10,12,15.20
2010,07,16,10,13,15.20
2010,07,16,10,14,15.10
2010,07,16,10,15,15.10
2010,07,16,10,16,15.10
2010,07,16,10,17,15.00
2010,07,16,10,18,15.00
2010,07,16,10,19,15.00
2010,07,16,10,20,15.00
2010,07,16,10,21,15.00
2010,07,16,10,22,15.00
2010,07,16,10,23,15.00
2010,07,16,10,24,15.00
2010,07,16,10,25,15.00
2010,07,16,10,26,15.10
2010,07,16,10,27,15.10
2010,07,16,10,28,15.10
2010,07,16,10,29,15.10
2010,07,16,10,30,15.00
2010,07,16,10,31,15.10
2010,07,16,10,32,15.20
2010,07,16,10,33,15.20
2010,07,16,10,34,15.00
2010,07,16,10,35,15.00
2010,07,16,10,36,14.90
2010,07,16,10,37,14.80
2010,07,16,10,38,14.70
2010,07,16,10,39,14.60
2010,07,16,10,40,14.50
2010,07,16,10,41,14.60
2010,07,16,10,42,14.50
2010,07,16,10,43,14.50
2010,07,16,10,44,14.50
2010,07,16,10,45,14.50
2010,07,16,10,46,14.60
2010,07,16,10,47,14.70
2010,07,16,10,48,14.80
2010,07,16,10,49,14.80
2010,07,16,10,50,14.80
2010,07,16,10,51,14.80
2010,07,16,10,52,14.80
2010,07,16,10,53,14.80
2010,07,16,10,54,14.80
2010,07,16,10,55,14.80
2010,07,16,10,56,14.90
2010,07,16,10,57,14.90
2010,07,16,10,58,14.90
2010,07,16,10,59,14.90
2010,07,16,11,00,15.00
2010,07,16,11,01,15.10
2010,07,16,11,02,15.20
2010,07,16,11,03,15.40
2010,07,16,11,04,15.40
2010,07,16,11,05,15.50
2010,07,16,11,06,15.50
2010,07,16,11,07,15.50
2010,07,16,11,08,15.40
2010,07,16,11,09,15.40
2010,07,16,11,10,15.30
2010,07,16,11,11,15.20
2010,07,16,11,12,15.20
2010,07,16,11,13,15.20
2010,07,16,11,14,15.30
2010,07,16,11,15,15.40
2010,07,16,11,16,15.40
2010,07,16,11,17,15.40
2010,07,16,11,18,15.30
2010,07,16,11,19,15.30
2010,07,16,11,20,15.30
2010,07,16,11,21,15.40
2010,07,16,11,22,15.50
2010,07,16,11,23,15.70
2010,07,16,11,24,15.70
2010,07,16,11,25,15.60
2010,07,16,11,26,15.50
2010,07,16,11,27,15.50
2010,07,16,11,28,15.40
2010,07,16,11,29,15.40
2010,07,16,11,30,15.40
2010,07,16,11,31,15.30
2010,07,16,11,32,15.40
2010,07,16,11,33,15.40
2010,07,16,11,34,15.50
2010,07,16,11,35,15.60
2010,07,16,11,36,15.50
2010,07,16,11,37,15.50
2010,07,16,11,38,15.60
2010,07,16,11,39,15.70
2010,07,16,11,40,15.80
2010,07,16,11,41,15.80
2010,07,16,11,42,15.80
2010,07,16,11,43,16.00
2010,07,16,11,44,16.10
2010,07,16,11,45,16.20
2010,07,16,11,46,16.30
2010,07,16,11,47,16.50
2010,07,16,11,48,16.70
2010,07,16,11,49,16.70
2010,07,16,11,50,16.70
2010,07,16,11,51,16.80
2010,07,16,11,52,16.90
2010,07,16,11,53,16.90
2010,07,16,11,54,17.00
2010,07,16,11,55,17.00
2010,07,16,11,56,17.10
2010,07,16,11,57,17.00
2010,07,16,11,58,17.00
2010,07,16,11,59,17.00
2010,07,16,12,00,17.00
2010,07,16,12,01,17.00
2010,07,16,12,02,17.10
2010,07,16,12,03,17.20
2010,07,16,12,04,17.30
2010,07,16,12,05,17.30
2010,07,16,12,06,17.20
2010,07,16,12,07,17.20
2010,07,16,12,08,17.10
2010,07,16,12,09,17.00
2010,07,16,12,10,17.20
2010,07,16,12,11,17.30
2010,07,16,12,12,17.30
2010,07,16,12,13,17.40
2010,07,16,12,14,17.40
2010,07,16,12,15,17.40
2010,07,16,12,16,17.50
2010,07,16,12,17,17.50
2010,07,16,12,18,17.50
2010,07,16,12,19,17.50
2010,07,16,12,20,17.50
2010,07,16,12,21,17.50
2010,07,16,12,22,17.40
2010,07,16,12,23,17.30
2010,07,16,12,24,17.30
2010,07,16,12,25,17.30
2010,07,16,12,26,17.30
2010,07,16,12,27,17.30
2010,07,16,12,28,17.40
2010,07,16,12,29,17.40
2010,07,16,12,30,17.30
2010,07,16,12,31,17.30
2010,07,16,12,32,17.30
2010,07,16,12,33,17.30
2010,07,16,12,34,17.40
2010,07,16,12,35,17.40
2010,07,16,12,36,17.50
2010,07,16,12,37,17.60
2010,07,16,12,38,17.60
2010,07,16,12,39,17.60
2010,07,16,12,40,17.50
2010,07,16,12,41,17.40
2010,07,16,12,42,17.30
2010,07,16,12,43,17.30
2010,07,16,12,44,17.30
2010,07,16,12,45,17.20
2010,07,16,12,46,17.10
2010,07,16,12,47,17.00
2010,07,16,12,48,17.00
2010,07,16,12,49,17.00
2010,07,16,12,50,17.00
2010,07,16,12,51,17.00
2010,07,16,12,52,17.00
2010,07,16,12,53,17.10
2010,07,16,12,54,17.10
2010,07,16,12,55,17.20
2010,07,16,12,56,17.10
2010,07,16,12,57,17.10
2010,07,16,12,58,17.10
2010,07,16,12,59,17.00
2010,07,16,13,00,17.00
2010,07,16,13,01,17.00
2010,07,16,13,02,17.00
2010,07,16,13,03,16.90
2010,07,16,13,04,16.90
2010,07,16,13,05,17.00
2010,07,16,13,06,17.00
2010,07,16,13,07,17.10
2010,07,16,13,08,17.30
2010,07,16,13,09,17.30
2010,07,16,13,10,17.40
2010,07,16,13,11,17.40
2010,07,16,13,12,17.50
2010,07,16,13,13,17.50
2010,07,16,13,14,17.50
2010,07,16,13,15,17.60
2010,07,16,13,16,17.70
2010,07,16,13,17,17.80
2010,07,16,13,18,17.80
2010,07,16,13,19,17.90
2010,07,16,13,20,17.80
2010,07,16,13,21,17.80
2010,07,16,13,22,17.90
2010,07,16,13,23,18.10
2010,07,16,13,24,18.20
2010,07,16,13,25,18.20
2010,07,16,13,26,18.20
2010,07,16,13,27,18.20
2010,07,16,13,28,18.20
2010,07,16,13,29,18.20
2010,07,16,13,30,18.20
2010,07,16,13,31,18.30
2010,07,16,13,32,18.30
2010,07,16,13,33,18.20
2010,07,16,13,34,18.00
2010,07,16,13,35,18.00
2010,07,16,13,36,18.10
2010,07,16,13,37,18.20
2010,07,16,13,38,18.40
2010,07,16,13,39,18.50
2010,07,16,13,40,18.60
2010,07,16,13,41,18.60
2010,07,16,13,42,18.60
2010,07,16,13,43,18.70
2010,07,16,13,44,18.70
2010,07,16,13,45,18.70
2010,07,16,13,46,18.70
2010,07,16,13,47,18.60
2010,07,16,13,48,18.60
2010,07,16,13,49,18.50
2010,07,16,13,50,18.50
2010,07,16,13,51,18.40
2010,07,16,13,52,18.30
2010,07,16,13,53,18.20
2010,07,16,13,54,18.20
2010,07,16,13,55,18.20
2010,07,16,13,56,18.10
2010,07,16,13,57,18.00
2010,07,16,13,58,17.80
2010,07,16,13,59,17.80
2010,07,16,14,00,17.70
2010,07,16,14,01,17.60
2010,07,16,14,02,17.60
2010,07,16,14,03,17.70
2010,07,16,14,04,17.80
2010,07,16,14,05,17.90
2010,07,16,14,06,17.90
2010,07,16,14,07,17.90
2010,07,16,14,08,17.90
2010,07,16,14,09,17.90
2010,07,16,14,10,17.90
2010,07,16,14,11,17.90
2010,07,16,14,12,17.80
2010,07,16,14,13,17.80
2010,07,16,14,14,17.80
2010,07,16,14,15,17.80
2010,07,16,14,16,17.80
2010,07,16,14,17,17.90
2010,07,16,14,18,17.90
2010,07,16,14,19,17.80
2010,07,16,14,20,17.90
2010,07,16,14,21,17.90
2010,07,16,14,22,17.90
2010,07,16,14,23,18.00
2010,07,16,14,24,18.20
2010,07,16,14,25,18.30
2010,07,16,14,26,18.40
2010,07,16,14,27,18.40
2010,07,16,14,28,18.30
2010,07,16,14,29,18.20
2010,07,16,14,30,18.20
2010,07,16,14,31,18.20
2010,07,16,14,32,18.20
2010,07,16,14,33,18.20
2010,07,16,14,34,18.20
2010,07,16,14,35,18.10
2010,07,16,14,36,18.10
2010,07,16,14,37,18.20
2010,07,16,14,38,18.20
2010,07,16,14,39,18.10
2010,07,16,14,40,18.10
2010,07,16,14,41,17.90
2010,07,16,14,42,17.80
2010,07,16,14,43,17.80
2010,07,16,14,44,17.80
2010,07,16,14,45,17.90
2010,07,16,14,46,18.00
2010,07,16,14,47,18.20
2010,07,16,14,48,18.30
2010,07,16,14,49,18.30
2010,07,16,14,50,18.30
2010,07,16,14,51,18.10
2010,07,16,14,52,18.10
2010,07,16,14,53,18.30
2010,07,16,14,54,18.40
2010,07,16,14,55,18.40
2010,07,16,14,56,18.40
2010,07,16,14,57,18.50
2010,07,16,14,58,18.60
2010,07,16,14,59,18.60
2010,07,16,15,00,18.60
2010,07,16,15,01,18.50
2010,07,16,15,02,18.50
2010,07,16,15,03,18.50
2010,07,16,15,04,18.50
2010,07,16,15,05,18.50
2010,07,16,15,06,18.50
2010,07,16,15,07,18.50
2010,07,16,15,08,18.50
2010,07,16,15,09,18.50
2010,07,16,15,10,18.40
2010,07,16,15,11,18.40
2010,07,16,15,12,18.30
2010,07,16,15,13,18.20
2010,07,16,15,14,18.10
2010,07,16,15,15,18.00
2010,07,16,15,16,17.90
2010,07,16,15,17,17.90
2010,07,16,15,18,17.90
2010,07,16,15,19,17.90
2010,07,16,15,20,18.10
2010,07,16,15,21,18.20
2010,07,16,15,22,18.20
2010,07,16,15,23,18.20
2010,07,16,15,24,18.30
2010,07,16,15,25,18.30
2010,07,16,15,26,18.20
2010,07,16,15,27,18.20
2010,07,16,15,28,18.10
2010,07,16,15,29,18.20
2010,07,16,15,30,18.20
2010,07,16,15,31,18.20
2010,07,16,15,32,18.20
2010,07,16,15,33,18.40
2010,07,16,15,34,18.40
2010,07,16,15,35,18.40
2010,07,16,15,36,18.30
2010,07,16,15,37,18.30
2010,07,16,15,38,18.30
2010,07,16,15,39,18.20
2010,07,16,15,40,18.20
2010,07,16,15,41,18.20
2010,07,16,15,42,18.30
2010,07,16,15,43,18.30
2010,07,16,15,44,18.30
2010,07,16,15,45,18.30
2010,07,16,15,46,18.30
2010,07,16,15,47,18.30
2010,07,16,15,48,18.40
2010,07,16,15,49,18.40
2010,07,16,15,50,18.50
2010,07,16,15,51,18.60
2010,07,16,15,52,18.70
2010,07,16,15,53,18.70
2010,07,16,15,54,18.70
2010,07,16,15,55,18.70
2010,07,16,15,56,18.90
2010,07,16,15,57,19.00
2010,07,16,15,58,19.10
2010,07,16,15,59,19.20
2010,07,16,16,00,19.40
2010,07,16,16,01,19.40
2010,07,16,16,02,19.40
2010,07,16,16,03,19.30
2010,07,16,16,04,19.00
2010,07,16,16,05,18.90
2010,07,16,16,06,18.90
2010,07,16,16,07,18.90
2010,07,16,16,08,18.90
2010,07,16,16,09,18.90
2010,07,16,16,10,18.90
2010,07,16,16,11,18.80
2010,07,16,16,12,18.90
2010,07,16,16,13,18.90
2010,07,16,16,14,19.10
2010,07,16,16,15,19.10
2010,07,16,16,16,19.10
2010,07,16,16,17,19.10
2010,07,16,16,18,19.30
2010,07,16,16,19,19.30
2010,07,16,16,20,19.30
2010,07,16,16,21,19.10
2010,07,16,16,22,19.00
2010,07,16,16,23,18.90
2010,07,16,16,24,18.90
2010,07,16,16,25,18.90
2010,07,16,16,26,18.80
2010,07,16,16,27,18.80
2010,07,16,16,28,18.70
2010,07,16,16,29,18.80
2010,07,16,16,30,18.70
2010,07,16,16,31,18.70
2010,07,16,16,32,18.70
2010,07,16,16,33,18.70
2010,07,16,16,34,18.70
2010,07,16,16,35,18.80
2010,07,16,16,36,18.80
2010,07,16,16,37,18.80
2010,07,16,16,38,18.80
2010,07,16,16,39,18.80
2010,07,16,16,40,18.90
2010,07,16,16,41,18.90
2010,07,16,16,42,18.90
2010,07,16,16,43,19.10
2010,07,16,16,44,19.10
2010,07,16,16,45,19.10
2010,07,16,16,46,19.10
2010,07,16,16,47,19.10
2010,07,16,16,48,19.10
2010,07,16,16,49,19.10
2010,07,16,16,50,19.10
2010,07,16,16,51,18.90
2010,07,16,16,52,18.80
2010,07,16,16,53,18.70
2010,07,16,16,54,18.70
2010,07,16,16,55,18.70
2010,07,16,16,56,18.70
2010,07,16,16,57,18.70
2010,07,16,16,58,18.70
2010,07,16,16,59,18.80
2010,07,16,17,00,18.80
2010,07,16,17,01,18.80
2010,07,16,17,02,18.90
2010,07,16,17,03,18.90
2010,07,16,17,04,18.90
2010,07,16,17,05,18.90
2010,07,16,17,06,18.90
2010,07,16,17,07,18.80
2010,07,16,17,08,18.80
2010,07,16,17,09,18.60
2010,07,16,17,10,18.60
2010,07,16,17,11,18.70
2010,07,16,17,12,18.70
2010,07,16,17,13,18.70
2010,07,16,17,14,18.70
2010,07,16,17,15,18.80
2010,07,16,17,16,18.90
2010,07,16,17,17,18.90
2010,07,16,17,18,18.90
2010,07,16,17,19,18.90